Location: Unspecified
(0.0000°N, 0.0000°E)
Time: 22:11:06
(UTC+00:00)

Explorer 11/Cluster Stage 4 - All Passes

Search period start: 27 October 2021 00:00
Search period end: 06 November 2021 00:00
Orbit: 467 x 1256 km, 28.8° (Epoch: 27 October)

Date Brightness Start Highest point End Pass type
(mag) Time Alt. Az. Time Alt. Az. Time Alt. Az.
27 Oct - 01:14:31 10° NW 01:22:12 42° NNE 01:29:23 10° E visible
27 Oct - 03:03:40 10° WNW 03:11:40 66° SSW 03:18:34 10° SE visible
27 Oct - 04:55:58 10° WSW 05:00:45 19° SSW 05:05:00 10° SSE visible
27 Oct - 14:05:53 10° SW 14:09:33 63° SSE 14:13:42 10° ENE daylight
27 Oct - 15:54:54 10° WNW 15:58:01 20° NNW 16:01:34 10° NNE daylight
27 Oct - 23:15:54 10° NNW 23:20:53 17° NNE 23:25:56 10° ENE night (unlit)
28 Oct - 01:02:57 10° NW 01:10:51 49° NNE 01:18:22 10° ESE visible
28 Oct - 02:52:20 10° WNW 03:00:18 57° SSW 03:07:18 10° SE visible
28 Oct - 04:45:08 10° WSW 04:49:31 16° SSW 04:53:31 10° S visible
28 Oct - 12:09:36 10° SSE 12:10:20 10° SSE 12:11:02 10° SE daylight
28 Oct - 13:54:52 10° WSW 13:58:30 86° SSE 14:02:32 10° ENE daylight
28 Oct - 15:44:35 10° WNW 15:47:01 15° NNW 15:49:42 10° NNE daylight
28 Oct - 23:04:13 10° NNW 23:09:38 20° NNE 23:15:15 10° ENE night (unlit)
29 Oct - 00:51:27 10° NW 00:59:29 57° NNE 01:07:15 10° ESE night (unlit)
29 Oct - 02:41:03 10° WNW 02:48:55 49° SSW 02:56:00 10° SE visible
29 Oct - 04:34:25 10° WSW 04:38:19 15° SSW 04:41:56 10° S visible
29 Oct - 11:57:20 10° S 11:59:18 14° SSE 12:01:14 10° ESE daylight
29 Oct - 13:43:52 10° WSW 13:47:27 69° NNW 13:51:21 10° NE daylight
29 Oct - 15:34:44 10° NW 15:36:02 11° NNW 15:37:24 10° N daylight
29 Oct - 22:52:36 10° NNW 22:58:22 22° NNE 23:04:27 10° ENE night (unlit)
30 Oct - 00:40:00 10° NW 00:48:04 66° NNE 00:56:04 10° ESE night (unlit)
30 Oct - 02:29:50 10° W 02:37:32 43° SSW 02:44:38 10° SE visible
30 Oct - 04:23:50 10° SW 04:27:08 13° SSW 04:30:16 10° S visible
30 Oct - 11:45:37 10° SSW 11:48:17 18° SSE 11:50:51 10° ESE daylight
30 Oct - 13:32:55 10° WSW 13:36:25 49° NNW 13:40:06 10° NE daylight
30 Oct - 22:41:02 10° NNW 22:47:05 25° NNE 22:53:32 10° E night (unlit)
31 Oct - 00:28:35 10° NW 00:36:38 76° NNE 00:44:49 10° ESE night (unlit)
31 Oct - 02:18:41 10° W 02:26:09 37° SSW 02:33:11 10° SE visible
31 Oct - 04:13:27 10° SW 04:15:58 12° SSW 04:18:24 10° S visible
31 Oct - 11:34:04 10° SSW 11:37:16 24° SSE 11:40:15 10° E daylight
31 Oct - 13:22:02 10° W 13:25:23 35° NNW 13:28:49 10° NE daylight
31 Oct - 22:29:32 10° NNW 22:35:46 29° NNE 22:42:33 10° E night (unlit)
01 Nov - 00:17:15 10° WNW 00:25:13 86° NNE 00:33:29 10° ESE night (unlit)
01 Nov - 02:07:37 10° W 02:14:47 33° SSW 02:21:41 10° SSE visible
01 Nov - 04:03:30 10° SSW 04:04:50 10° SSW 04:06:08 10° SSW visible
01 Nov - 11:22:36 10° SW 11:26:14 32° SSE 11:29:33 10° E daylight
01 Nov - 13:11:13 10° W 13:14:20 26° NNW 13:17:28 10° NNE daylight
01 Nov - 22:18:06 10° NNW 22:24:24 33° NNE 22:31:27 10° E night (unlit)
02 Nov - 00:05:58 10° WNW 00:13:47 83° SSW 00:22:05 10° ESE night (unlit)
02 Nov - 01:56:37 10° W 02:03:27 29° SSW 02:10:08 10° SSE visible
02 Nov - 11:11:11 10° SW 11:15:12 43° SSE 11:18:44 10° ENE daylight
02 Nov - 13:00:29 10° W 13:03:17 20° NNW 13:06:03 10° NNE daylight
02 Nov - 22:06:42 10° NW 22:13:03 37° NNE 22:20:18 10° E night (unlit)
02 Nov - 23:54:44 10° WNW 00:02:22 72° SSW 00:10:38 10° SE night (unlit)
03 Nov - 01:45:43 10° WSW 01:52:08 25° SSW 01:58:31 10° SSE visible
03 Nov - 09:13:14 10° S 09:15:18 12° SSE 09:17:13 10° SE daylight
03 Nov - 10:59:49 10° SW 11:04:09 60° SSE 11:07:51 10° ENE daylight
03 Nov - 12:49:51 10° WNW 12:52:13 16° NNW 12:54:32 10° N daylight
03 Nov - 20:10:49 10° NNE 20:12:32 11° NNE 20:14:20 10° NE night (unlit)
03 Nov - 21:55:21 10° NW 22:01:41 43° NNE 22:09:04 10° E night (unlit)
03 Nov - 23:43:35 10° WNW 23:50:58 62° SSW 23:59:07 10° SE night (unlit)
04 Nov - 01:34:54 10° WSW 01:40:50 22° SSW 01:46:50 10° SSE visible
04 Nov - 09:01:01 10° SSW 09:04:18 16° SSE 09:07:12 10° ESE daylight
04 Nov - 10:48:29 10° WSW 10:53:04 81° SSE 10:56:55 10° ENE daylight
04 Nov - 12:39:26 10° WNW 12:41:09 13° NNW 12:42:49 10° N daylight
04 Nov - 19:58:55 10° N 20:01:22 12° NNE 20:03:59 10° NE visible
04 Nov - 21:44:04 10° NW 21:50:19 49° NNE 21:57:47 10° ESE night (unlit)
04 Nov - 23:32:30 10° WNW 23:39:35 53° SSW 23:47:33 10° SE night (unlit)
05 Nov - 01:24:11 10° WSW 01:29:35 19° SSW 01:35:04 10° SSE visible
05 Nov - 08:49:05 10° SSW 08:53:15 21° SSE 08:56:50 10° ESE daylight
05 Nov - 10:37:10 10° WSW 10:41:58 76° NNW 10:45:55 10° NE daylight
05 Nov - 19:47:14 10° N 19:50:10 14° NNE 19:53:23 10° ENE visible
05 Nov - 21:32:48 10° NW 21:38:58 57° NNE 21:46:26 10° ESE night (unlit)
05 Nov - 23:21:29 10° W 23:28:14 45° SSW 23:35:55 10° SE night (unlit)
